{"data":{"norad_id":64720,"epoch":"2026-09-20T04:28:50.535264Z","epoch_age_seconds":154680,"freshness":"FRESH","line1":"1 64720U 25142AA  26263.18669601  .00009936  00000+0  34951-3 0  9990","line2":"2 64720  70.0002 181.7055 0003008 272.0484  88.0347 15.29592141 68840","mean_motion":15.29592141,"eccentricity":0.0003008,"inclination_deg":70.0002,"raan_deg":181.7055,"arg_perigee_deg":272.0484,"mean_anomaly_deg":88.0347,"bstar":0.00034951,"rev_number":6884,"period_min":94.142743114421,"perigee_km":474.9685934295,"apogee_km":479.09266227442,"semimajor_km":6855.167627852,"source":"CELESTRAK","updated_at":"2026-09-21T09:00:35.408106Z"}}